Time,TemperatureF,DewpointF,PressureIn,WindDirection,WindDirectionDegrees,WindSpeedMPH,WindSpeedGustMPH,Humidity,HourlyPrecipIn,Conditions,Clouds,dailyrainin,SoftwareType,DateUTC
2013-02-27 00:11:00,45.0,34.0,29.93,East,96,0.0,2.0,65,0.00,,,0.00,weatherlink.com 1.10,2013-02-27 06:11:00,
2013-02-27 00:26:00,44.4,34.0,29.94,SE,145,0.0,2.0,66,0.00,,,0.00,weatherlink.com 1.10,2013-02-27 06:26:00,
2013-02-27 00:41:00,43.9,33.0,29.94,SE,143,1.0,1.0,66,0.00,,,0.00,weatherlink.com 1.10,2013-02-27 06:41:00,
2013-02-27 00:56:00,43.9,33.0,29.95,East,100,0.0,1.0,65,0.00,,,0.00,weatherlink.com 1.10,2013-02-27 06:56:00,
2013-02-27 01:12:00,42.8,32.0,29.95,East,101,0.0,0.0,67,0.00,,,0.00,weatherlink.com 1.10,2013-02-27 07:12:00,
2013-02-27 01:27:00,43.2,33.0,29.94,ENE,64,2.0,2.0,68,0.00,,,0.00,weatherlink.com 1.10,2013-02-27 07:27:00,
2013-02-27 01:42:00,42.7,33.0,29.94,ENE,66,1.0,1.0,69,0.00,,,0.00,weatherlink.com 1.10,2013-02-27 07:42:00,
2013-02-27 01:57:00,42.7,33.0,29.93,East,84,2.0,3.0,68,0.00,,,0.00,weatherlink.com 1.10,2013-02-27 07:57:00,
2013-02-27 02:12:00,42.7,33.0,29.93,East,87,3.0,3.0,69,0.00,,,0.00,weatherlink.com 1.10,2013-02-27 08:12:00,
2013-02-27 02:27:00,42.2,33.0,29.92,East,80,0.0,3.0,70,0.00,,,0.00,weatherlink.com 1.10,2013-02-27 08:27:00,
2013-02-27 02:42:00,41.4,33.0,29.93,NE,53,0.0,1.0,72,0.00,,,0.00,weatherlink.com 1.10,2013-02-27 08:42:00,
2013-02-27 02:57:00,41.6,32.0,29.95,NW,325,3.0,3.0,70,0.00,,,0.00,weatherlink.com 1.10,2013-02-27 08:57:00,
2013-02-27 03:12:00,41.2,32.0,29.96,North,9,1.0,1.0,70,0.00,,,0.00,weatherlink.com 1.10,2013-02-27 09:12:00,
2013-02-27 03:27:00,40.9,32.0,29.97,North,355,1.0,2.0,70,0.00,,,0.00,weatherlink.com 1.10,2013-02-27 09:27:00,
2013-02-27 03:42:00,41.3,31.0,29.95,ENE,77,1.0,3.0,68,0.00,,,0.00,weatherlink.com 1.10,2013-02-27 09:42:00,
2013-02-27 03:57:00,41.2,31.0,29.95,NE,49,4.0,5.0,67,0.00,,,0.00,weatherlink.com 1.10,2013-02-27 09:57:00,
2013-02-27 04:12:00,41.4,31.0,29.94,NNE,31,4.0,8.0,66,0.00,,,0.00,weatherlink.com 1.10,2013-02-27 10:12:00,
2013-02-27 04:27:00,40.6,31.0,29.96,North,11,5.0,6.0,68,0.00,,,0.00,weatherlink.com 1.10,2013-02-27 10:27:00,
2013-02-27 04:42:00,40.4,31.0,29.98,North,358,2.0,7.0,68,0.00,,,0.00,weatherlink.com 1.10,2013-02-27 10:42:00,
2013-02-27 04:57:00,40.1,31.0,30.00,North,349,3.0,8.0,70,0.00,,,0.00,weatherlink.com 1.10,2013-02-27 10:57:00,
2013-02-27 05:12:00,39.7,31.0,30.01,NE,44,2.0,6.0,71,0.00,,,0.00,weatherlink.com 1.10,2013-02-27 11:12:00,
2013-02-27 05:27:00,39.4,31.0,30.01,NNE,22,2.0,9.0,72,0.00,,,0.00,weatherlink.com 1.10,2013-02-27 11:27:00,
2013-02-27 05:42:00,39.1,31.0,30.02,NNW,341,3.0,9.0,74,0.00,,,0.00,weatherlink.com 1.10,2013-02-27 11:42:00,
2013-02-27 05:57:00,38.9,31.0,30.03,NNE,29,8.0,11.0,74,0.00,,,0.00,weatherlink.com 1.10,2013-02-27 11:57:00,
2013-02-27 06:12:00,38.7,31.0,30.04,ENE,63,4.0,9.0,75,0.00,,,0.00,weatherlink.com 1.10,2013-02-27 12:12:00,
2013-02-27 06:27:00,38.4,31.0,30.04,North,1,4.0,8.0,76,0.00,,,0.00,weatherlink.com 1.10,2013-02-27 12:27:00,
2013-02-27 06:42:00,38.4,32.0,30.05,NNE,33,2.0,8.0,77,0.00,,,0.00,weatherlink.com 1.10,2013-02-27 12:42:00,
2013-02-27 06:58:00,38.5,32.0,30.07,North,10,5.0,12.0,77,0.00,,,0.00,weatherlink.com 1.10,2013-02-27 12:58:00,
2013-02-27 07:13:00,38.2,32.0,30.08,NNE,26,4.0,12.0,77,0.00,,,0.00,weatherlink.com 1.10,2013-02-27 13:13:00,
2013-02-27 07:28:00,37.9,32.0,30.08,NNW,335,5.0,9.0,78,0.00,,,0.00,weatherlink.com 1.10,2013-02-27 13:28:00,
2013-02-27 07:43:00,38.6,32.0,30.09,NW,326,4.0,9.0,77,0.00,,,0.00,weatherlink.com 1.10,2013-02-27 13:43:00,
2013-02-27 07:58:00,39.3,32.0,30.11,NNW,335,5.0,10.0,75,0.00,,,0.00,weatherlink.com 1.10,2013-02-27 13:58:00,
2013-02-27 08:13:00,40.2,32.0,30.11,NNE,25,5.0,9.0,73,0.00,,,0.00,weatherlink.com 1.10,2013-02-27 14:13:00,
2013-02-27 08:28:00,41.4,32.0,30.12,North,360,6.0,8.0,70,0.00,,,0.00,weatherlink.com 1.10,2013-02-27 14:28:00,
2013-02-27 08:43:00,42.2,31.0,30.13,NNW,338,5.0,10.0,66,0.00,,,0.00,weatherlink.com 1.10,2013-02-27 14:43:00,
2013-02-27 08:58:00,43.1,31.0,30.14,North,360,9.0,14.0,62,0.00,,,0.00,weatherlink.com 1.10,2013-02-27 14:58:00,
2013-02-27 09:13:00,42.9,30.0,30.14,NW,326,5.0,11.0,61,0.00,,,0.00,weatherlink.com 1.10,2013-02-27 15:13:00,
2013-02-27 09:28:00,43.9,30.0,30.15,NW,319,7.0,12.0,58,0.00,,,0.00,weatherlink.com 1.10,2013-02-27 15:28:00,
2013-02-27 09:43:00,44.2,30.0,30.16,NW,307,11.0,14.0,57,0.00,,,0.00,weatherlink.com 1.10,2013-02-27 15:43:00,
2013-02-27 09:58:00,44.8,30.0,30.16,NNW,328,8.0,11.0,56,0.00,,,0.00,weatherlink.com 1.10,2013-02-27 15:58:00,
2013-02-27 10:13:00,45.5,29.0,30.16,NNW,336,7.0,15.0,53,0.00,,,0.00,weatherlink.com 1.10,2013-02-27 16:13:00,
2013-02-27 10:28:00,46.4,29.0,30.16,NNW,337,8.0,13.0,51,0.00,,,0.00,weatherlink.com 1.10,2013-02-27 16:28:00,
2013-02-27 10:43:00,47.4,28.0,30.17,NW,325,8.0,14.0,48,0.00,,,0.00,weatherlink.com 1.10,2013-02-27 16:43:00,
2013-02-27 10:58:00,48.6,28.0,30.17,WNW,294,8.0,16.0,45,0.00,,,0.00,weatherlink.com 1.10,2013-02-27 16:58:00,
2013-02-27 11:13:00,49.7,26.0,30.18,WNW,297,14.0,15.0,40,0.00,,,0.00,weatherlink.com 1.10,2013-02-27 17:13:00,
2013-02-27 11:28:00,50.5,26.0,30.17,NW,314,8.0,16.0,39,0.00,,,0.00,weatherlink.com 1.10,2013-02-27 17:28:00,
2013-02-27 11:43:00,51.6,25.0,30.17,NW,316,12.0,17.0,35,0.00,,,0.00,weatherlink.com 1.10,2013-02-27 17:43:00,
2013-02-27 11:58:00,52.4,26.0,30.17,NW,308,12.0,16.0,36,0.00,,,0.00,weatherlink.com 1.10,2013-02-27 17:58:00,
2013-02-27 12:13:00,53.1,24.0,30.17,NW,311,10.0,18.0,32,0.00,,,0.00,weatherlink.com 1.10,2013-02-27 18:13:00,
2013-02-27 12:28:00,53.4,22.0,30.17,NW,311,11.0,18.0,29,0.00,,,0.00,weatherlink.com 1.10,2013-02-27 18:28:00,
2013-02-27 12:44:00,54.0,20.0,30.18,NW,313,6.0,18.0,26,0.00,,,0.00,weatherlink.com 1.10,2013-02-27 18:44:00,
2013-02-27 12:59:00,54.3,19.0,30.17,NW,304,6.0,18.0,25,0.00,,,0.00,weatherlink.com 1.10,2013-02-27 18:59:00,
2013-02-27 13:14:00,54.6,18.0,30.16,WNW,303,14.0,19.0,24,0.00,,,0.00,weatherlink.com 1.10,2013-02-27 19:14:00,
2013-02-27 13:29:00,54.5,19.0,30.16,NNW,333,19.0,19.0,25,0.00,,,0.00,weatherlink.com 1.10,2013-02-27 19:29:00,
2013-02-27 13:44:00,54.3,21.0,30.16,WNW,301,6.0,22.0,27,0.00,,,0.00,weatherlink.com 1.10,2013-02-27 19:44:00,
2013-02-27 13:59:00,54.7,24.0,30.16,NW,323,5.0,19.0,30,0.00,,,0.00,weatherlink.com 1.10,2013-02-27 19:59:00,
2013-02-27 14:14:00,54.9,24.0,30.16,NW,325,7.0,20.0,30,0.00,,,0.00,weatherlink.com 1.10,2013-02-27 20:14:00,
2013-02-27 14:29:00,55.0,25.0,30.16,NW,308,9.0,21.0,32,0.00,,,0.00,weatherlink.com 1.10,2013-02-27 20:29:00,
2013-02-27 14:44:00,55.2,26.0,30.16,NW,318,5.0,17.0,33,0.00,,,0.00,weatherlink.com 1.10,2013-02-27 20:44:00,
2013-02-27 14:59:00,55.3,26.0,30.16,NW,314,6.0,21.0,33,0.00,,,0.00,weatherlink.com 1.10,2013-02-27 20:59:00,
2013-02-27 15:14:00,55.4,25.0,30.16,NNW,328,9.0,20.0,31,0.00,,,0.00,weatherlink.com 1.10,2013-02-27 21:14:00,
2013-02-27 15:29:00,55.7,25.0,30.16,NW,326,10.0,16.0,30,0.00,,,0.00,weatherlink.com 1.10,2013-02-27 21:29:00,
2013-02-27 15:44:00,55.7,24.0,30.15,WNW,302,17.0,24.0,29,0.00,,,0.00,weatherlink.com 1.10,2013-02-27 21:44:00,
2013-02-27 15:59:00,55.6,24.0,30.15,NW,314,7.0,18.0,29,0.00,,,0.00,weatherlink.com 1.10,2013-02-27 21:59:00,
2013-02-27 16:14:00,55.5,22.0,30.15,NNW,337,10.0,18.0,27,0.00,,,0.00,weatherlink.com 1.10,2013-02-27 22:14:00,
2013-02-27 16:29:00,55.5,21.0,30.15,NNW,329,16.0,19.0,26,0.00,,,0.00,weatherlink.com 1.10,2013-02-27 22:29:00,
2013-02-27 16:44:00,55.8,19.0,30.16,NNW,328,12.0,22.0,24,0.00,,,0.00,weatherlink.com 1.10,2013-02-27 22:44:00,
2013-02-27 16:59:00,55.8,20.0,30.16,NW,308,7.0,21.0,25,0.00,,,0.00,weatherlink.com 1.10,2013-02-27 22:59:00,
2013-02-27 17:14:00,55.6,21.0,30.16,NW,323,7.0,16.0,26,0.00,,,0.00,weatherlink.com 1.10,2013-02-27 23:14:00,
2013-02-27 17:29:00,55.3,20.0,30.16,NNW,341,10.0,17.0,25,0.00,,,0.00,weatherlink.com 1.10,2013-02-27 23:29:00,
2013-02-27 17:44:00,54.7,19.0,30.17,North,351,9.0,19.0,25,0.00,,,0.00,weatherlink.com 1.10,2013-02-27 23:44:00,
2013-02-27 17:59:00,54.5,18.0,30.17,NW,316,9.0,18.0,24,0.00,,,0.00,weatherlink.com 1.10,2013-02-27 23:59:00,
2013-02-27 18:14:00,53.3,18.0,30.17,NW,325,9.0,23.0,25,0.00,,,0.00,weatherlink.com 1.10,2013-02-28 00:14:00,
2013-02-27 18:29:00,52.2,18.0,30.18,NW,315,9.0,21.0,26,0.00,,,0.00,weatherlink.com 1.10,2013-02-28 00:29:00,
2013-02-27 18:44:00,51.5,20.0,30.19,NW,323,5.0,17.0,29,0.00,,,0.00,weatherlink.com 1.10,2013-02-28 00:44:00,
2013-02-27 18:59:00,50.8,21.0,30.20,NNW,327,8.0,17.0,31,0.00,,,0.00,weatherlink.com 1.10,2013-02-28 00:59:00,
2013-02-27 19:14:00,50.2,22.0,30.20,NW,323,13.0,19.0,33,0.00,,,0.00,weatherlink.com 1.10,2013-02-28 01:14:00,
2013-02-27 19:29:00,49.7,23.0,30.21,NNW,328,13.0,15.0,35,0.00,,,0.00,weatherlink.com 1.10,2013-02-28 01:29:00,
2013-02-27 19:44:00,49.2,23.0,30.22,NW,321,13.0,18.0,36,0.00,,,0.00,weatherlink.com 1.10,2013-02-28 01:44:00,
2013-02-27 19:59:00,48.7,24.0,30.23,NNW,347,12.0,18.0,38,0.00,,,0.00,weatherlink.com 1.10,2013-02-28 01:59:00,
2013-02-27 20:14:00,48.2,24.0,30.23,NNW,337,12.0,21.0,39,0.00,,,0.00,weatherlink.com 1.10,2013-02-28 02:14:00,
2013-02-27 20:29:00,47.6,24.0,30.23,NNW,335,10.0,18.0,40,0.00,,,0.00,weatherlink.com 1.10,2013-02-28 02:29:00,
2013-02-27 20:44:00,47.1,24.0,30.24,NW,325,15.0,19.0,41,0.00,,,0.00,weatherlink.com 1.10,2013-02-28 02:44:00,
2013-02-27 20:59:00,46.7,25.0,30.24,NNW,332,9.0,17.0,43,0.00,,,0.00,weatherlink.com 1.10,2013-02-28 02:59:00,
2013-02-27 21:14:00,46.3,25.0,30.24,NW,320,7.0,16.0,43,0.00,,,0.00,weatherlink.com 1.10,2013-02-28 03:14:00,
2013-02-27 21:29:00,45.9,25.0,30.25,NNW,331,7.0,16.0,45,0.00,,,0.00,weatherlink.com 1.10,2013-02-28 03:29:00,
2013-02-27 21:44:00,45.4,26.0,30.25,NW,325,6.0,15.0,46,0.00,,,0.00,weatherlink.com 1.10,2013-02-28 03:44:00,
2013-02-27 21:59:00,45.0,25.0,30.25,North,352,5.0,11.0,46,0.00,,,0.00,weatherlink.com 1.10,2013-02-28 03:59:00,
2013-02-27 22:29:00,44.1,25.0,30.27,NNE,21,4.0,15.0,47,0.00,,,0.00,weatherlink.com 1.10,2013-02-28 04:29:00,
2013-02-27 22:44:00,43.5,25.0,30.27,NW,320,12.0,15.0,48,0.00,,,0.00,weatherlink.com 1.10,2013-02-28 04:44:00,
2013-02-27 22:59:00,43.1,25.0,30.27,NNW,327,4.0,14.0,50,0.00,,,0.00,weatherlink.com 1.10,2013-02-28 04:59:00,
2013-02-27 23:14:00,42.7,25.0,30.28,NNW,330,7.0,15.0,50,0.00,,,0.00,weatherlink.com 1.10,2013-02-28 05:14:00,
2013-02-27 23:29:00,42.3,24.0,30.28,NNW,347,8.0,12.0,48,0.00,,,0.00,weatherlink.com 1.10,2013-02-28 05:29:00,
2013-02-27 23:45:00,41.9,24.0,30.28,NNW,347,3.0,15.0,49,0.00,,,0.00,weatherlink.com 1.10,2013-02-28 05:45:00,